Weather History for Maykop, Russia

Change the Weather History Date:

Tuesday, February 5, 2013

  Actual Average Record
Temperature  
Mean Temperature 44 °F -  
Max Temperature 53 °F - - ()
Min Temperature 35 °F - - ()
Degree Days  
Heating Degree Days 21    
Moisture  
Dew Point 36 °F    
Average Humidity 79    
Maximum Humidity 100    
Minimum Humidity 47    
Precipitation  
Precipitation 0.00 in - - ()
Sea Level Pressure  
Sea Level Pressure 30.00 in    
Wind  
Wind Speed 4 mph ()    
Max Wind Speed 13 mph    
Max Gust Speed 22 mph    
Visibility 4.9 miles    
Events Rain    
T = Trace of Precipitation, MM = Missing Value Source: Averaged Metar Reports

Daily Weather History Graph

Daily Weather History Graph

Search for Another Location

Airport:

Trip Planner

Search our weather history database for the weather conditions in past years. The results will help you decide how hot, cold, wet, or windy it might be!

Date:

Astronomy

Feb. 05, 2013 Rise Set
Actual Time 8:33 AM MSK 6:34 PM MSK
Civil Twilight 8:03 AM MSK 7:04 PM MSK
Nautical Twilight 7:28 AM MSK 7:39 PM MSK
Astronomical Twilight 6:54 AM MSK 8:13 PM MSK
Moon 3:56 AM MSK (2/5) 1:26 PM MSK (2/5)
Length of Visible Light 11h 01m
Length of Day
10h 00m
Waning Crescent, 30% of the Moon is Illuminated
Feb 5
Waning Crescent
Feb 10
New
Feb 18
First Quarter
Feb 26
Full
Mar 5
Last Quarter

Hourly Weather History & Observations

Time (MSK) Temp. Windchill Dew Point Humidity Pressure Visibility Wind Dir Wind Speed Gust Speed Precip Events Conditions
12:00 AM 50.0 °F - 35.6 °F 58% 29.98 in - Calm Calm - N/A   Clear
1:00 AM 46.4 °F 44.4 °F 33.8 °F 62% 29.98 in - North 4.5 mph - N/A   Clear
2:00 AM 44.6 °F 42.3 °F 33.8 °F 66% 29.98 in - NE 4.5 mph - N/A   Clear
3:00 AM 42.8 °F 40.2 °F 33.8 °F 70% 29.98 in - ESE 4.5 mph - N/A   Clear
4:00 AM 42.8 °F 40.2 °F 33.8 °F 70% 29.98 in - NNE 4.5 mph - N/A   Clear
5:00 AM 39.2 °F - 33.8 °F 81% 29.98 in - NNE 2.2 mph - N/A   Clear
6:00 AM 37.4 °F - 35.6 °F 93% 29.95 in 3.1 mi North 2.2 mph - N/A   Overcast
7:00 AM 35.6 °F 31.8 °F 35.6 °F 100% 29.92 in 3.1 mi West 4.5 mph - N/A   Overcast
8:00 AM 37.4 °F 32.2 °F 35.6 °F 93% 29.92 in - NW 6.7 mph - N/A   Overcast
9:00 AM 37.4 °F 33.9 °F 37.4 °F 100% 29.95 in 1.7 mi NW 4.5 mph - N/A   Overcast
9:30 AM 37.4 °F - 35.6 °F 93% 29.95 in - NW 2.2 mph - N/A   Overcast
10:00 AM 39.2 °F - 37.4 °F 93% 29.98 in - WSW 2.2 mph - N/A   Overcast
11:00 AM 39.2 °F - 37.4 °F 93% 29.98 in 3.1 mi Calm Calm - N/A Rain Light Rain Showers
12:00 PM 39.2 °F - 37.4 °F 93% 29.98 in - NNW 2.2 mph - N/A Rain Light Rain Showers
1:00 PM 41.0 °F - 39.2 °F 93% 29.98 in - Calm Calm - N/A Rain Light Rain Showers
2:00 PM 42.8 °F - 41.0 °F 93% 29.98 in 3.1 mi SSW 2.2 mph - N/A   Mostly Cloudy
3:00 PM 48.2 °F - 42.8 °F 82% 29.98 in 6.2 mi WSW 4.5 mph - N/A   Mostly Cloudy
4:00 PM 51.8 °F - 37.4 °F 58% 29.98 in 6.2 mi West 13.4 mph 22.4 mph N/A   Scattered Clouds
5:00 PM 53.6 °F - 33.8 °F 47% 30.01 in 6.2 mi West 13.4 mph 22.4 mph N/A   Scattered Clouds
6:00 PM 50.0 °F - 35.6 °F 58% 30.04 in 6.2 mi West 11.2 mph 17.9 mph N/A   Scattered Clouds
7:00 PM 46.4 °F 40.5 °F 33.8 °F 62% 30.06 in 6.2 mi West 13.4 mph 22.4 mph N/A   Partly Cloudy
8:00 PM 41.0 °F 34.4 °F 32.0 °F 70% 30.09 in 6.2 mi NW 11.2 mph 17.9 mph N/A   Partly Cloudy
9:00 PM 41.0 °F 35.4 °F 32.0 °F 70% 30.09 in - NW 8.9 mph - N/A   Clear
10:00 PM 35.6 °F 31.8 °F 32.0 °F 87% 30.12 in 6.2 mi East 4.5 mph - N/A   Scattered Clouds
11:00 PM 37.4 °F 33.9 °F 33.8 °F 87% 30.15 in 6.2 mi ENE 4.5 mph - N/A   Overcast